Starlink 11564

operational
NORAD ID: 62913 Int'l Des: 2025-027 Owner: SPXS Country: US Constellation: starlink
LEOCIRCULAR

Über Starlink 11564

Beschreibung wird geladen...

Live-Position

3D-Globus wird geladen...

Nächste Überflüge

Höhenverlauf

Altitude vs Time

uPlot chart will show altitude changes over time

Zweizeiliger Elementsatz

1 62913U 25027G 25257.39646509 .00157892 00000-0 12111-2 0 9990
2 62913 42.9999 330.4925 0002208 289.2148 70.8480 15.70831267 35428
Epoch: 14. Sept. 2025 • Age: 22 hours

Aktueller Status

Höhe 359.2 km
Geschwindigkeit 7.70 km/s
Subsatellitenpunkt 40.05°N, 73.39°W
Startdatum 8. Feb. 2025
Alter 0.5 years
Typ internet

Technische Details

Klassifizierung Payload
Masse 960.00 kg
Trockenmasse 910.00 kg
Gesamtmasse 960.00 kg
Länge 0.30 m
Durchmesser 4.10 m
Spannweite 29.00 m
Form Box + pan
Hersteller SPXS
Bus-Typ Starlink V2MD
Phasenstatus In Orbit
Besitzer/Staat SPXS/US

Große Konstellationen

Loading constellations...